Weather History for Lancaster, SC

Change the Weather History Date:

Wednesday, February 22, 2012

  Actual Average (KUZA) Record (KUZA)
Temperature  
Mean Temperature 56 °F -  
Max Temperature 68 °F 59 °F 73 °F (2011)
Min Temperature 44 °F 38 °F 11 °F (1963)
Degree Days  
Heating Degree Days 9    
Growing Degree Days 6 (Base 50)    
Moisture  
Dew Point 49 °F    
Average Humidity 86    
Maximum Humidity 100    
Minimum Humidity 46    
Precipitation  
Precipitation 0.00 in - - ()
Sea Level Pressure  
Sea Level Pressure 29.87 in    
Wind  
Wind Speed 3 mph (SW)    
Max Wind Speed 16 mph    
Max Gust Speed 25 mph    
Visibility 10 miles    
Events      
Averages and records for this station are not official NWS values.
T = Trace of Precipitation, MM = Missing Value Source: NWS Daily Summary

Daily Weather History Graph

Daily Weather History Graph

Search for Another Location

Airport:

Trip Planner

Search our weather history database for the weather conditions in past years. The results will help you decide how hot, cold, wet, or windy it might be!

Date:

Astronomy

Feb. 22, 2012 Rise Set
Actual Time 7:01 AM EST 6:12 PM EST
Civil Twilight 6:36 AM EST 6:38 PM EST
Nautical Twilight 6:06 AM EST 7:07 PM EST
Astronomical Twilight 5:37 AM EST 7:36 PM EST
Moon 7:03 AM EST (2/22) 7:12 PM EST (2/22)
Length of Visible Light 12h 01m
Length of Day
11h 10m
New Moon, 1% of the Moon is Illuminated
Feb 22
New Moon
Feb 29
First Quarter
Mar 8
Full
Mar 14
Last Quarter
Mar 22
New

Hourly Weather History & Observations

Time (EST) Temp. Windchill Dew Point Humidity Pressure Visibility Wind Dir Wind Speed Gust Speed Precip Events Conditions
12:15 AM 46.4 °F - 44.6 °F 93% 30.03 in 10.0 mi Calm Calm - N/A   Clear
12:35 AM 44.6 °F - 44.6 °F 100% 30.03 in 10.0 mi Calm Calm - N/A   Clear
12:55 AM 44.6 °F - 44.6 °F 100% 30.02 in 10.0 mi Calm Calm - N/A   Clear
1:15 AM 44.6 °F - 44.6 °F 100% 30.02 in 10.0 mi Calm Calm - N/A   Clear
1:35 AM 46.4 °F - 44.6 °F 93% 30.02 in 10.0 mi Calm Calm - N/A   Clear
1:55 AM 46.4 °F 45.2 °F 44.6 °F 93% 30.01 in 10.0 mi SSW 3.5 mph - N/A   Clear
2:15 AM 44.6 °F - 44.6 °F 100% 30.01 in 10.0 mi Calm Calm - N/A   Clear
2:35 AM 44.6 °F - 44.6 °F 100% 30.00 in 10.0 mi Calm Calm - N/A   Clear
2:55 AM 44.6 °F - 44.6 °F 100% 30.00 in 10.0 mi Calm Calm - N/A   Clear
3:15 AM 44.6 °F - 44.6 °F 100% 29.99 in 10.0 mi Calm Calm - N/A   Clear
3:35 AM 46.4 °F 45.2 °F 46.4 °F 100% 29.98 in 10.0 mi SW 3.5 mph - N/A   Clear
4:15 AM 46.4 °F - 46.4 °F 100% 29.98 in 10.0 mi Calm Calm - N/A   Clear
4:35 AM 46.4 °F 42.9 °F 46.4 °F 100% 29.98 in 10.0 mi SW 6.9 mph - N/A   Clear
5:15 AM 48.2 °F - 48.2 °F 100% 29.97 in 10.0 mi SW 6.9 mph - N/A   Clear
5:35 AM 48.2 °F - 48.2 °F 100% 29.98 in 10.0 mi SW 5.8 mph - N/A   Clear
5:55 AM 46.4 °F 45.2 °F 46.4 °F 100% 29.98 in 10.0 mi SSW 3.5 mph - N/A   Clear
6:15 AM 46.4 °F 45.2 °F 46.4 °F 100% 29.98 in 10.0 mi SW 3.5 mph - N/A   Clear
6:35 AM 46.4 °F - 46.4 °F 100% 29.97 in 10.0 mi Calm Calm - N/A   Scattered Clouds
6:55 AM 46.4 °F - 46.4 °F 100% 29.97 in 10.0 mi Calm Calm - N/A   Partly Cloudy
7:15 AM 44.6 °F - 44.6 °F 100% 29.97 in 9.0 mi Calm Calm - N/A   Clear
7:35 AM 44.6 °F - 44.6 °F 100% 29.97 in 4.0 mi Calm Calm - N/A   Clear
7:55 AM 44.6 °F - 44.6 °F 100% 29.97 in 5.0 mi Calm Calm - N/A   Partly Cloudy
8:15 AM 48.2 °F - 48.2 °F 100% 29.98 in 10.0 mi WSW 5.8 mph - N/A   Mostly Cloudy
8:35 AM 48.2 °F - 48.2 °F 100% 29.99 in 10.0 mi SW 6.9 mph - N/A   Overcast
8:55 AM 50.0 °F - 50.0 °F 100% 29.98 in 10.0 mi SSW 4.6 mph - N/A   Overcast
9:35 AM 53.6 °F - 53.6 °F 100% 29.96 in 10.0 mi SSW 6.9 mph - N/A   Overcast
9:55 AM 53.6 °F - 53.6 °F 100% 29.96 in 10.0 mi SW 8.1 mph - N/A   Overcast
10:15 AM 55.4 °F - 53.6 °F 94% 29.95 in 10.0 mi SW 6.9 mph - N/A   Overcast
10:35 AM 55.4 °F - 53.6 °F 94% 29.95 in 10.0 mi SW 5.8 mph - N/A   Overcast
10:55 AM 55.4 °F - 53.6 °F 94% 29.94 in 10.0 mi WSW 9.2 mph 17.3 mph N/A   Overcast
11:15 AM 57.2 °F - 53.6 °F 88% 29.93 in 10.0 mi SW 15.0 mph 18.4 mph N/A   Overcast
11:55 AM 59.0 °F - 55.4 °F 88% 29.92 in 10.0 mi SW 6.9 mph 16.1 mph N/A   Mostly Cloudy
12:15 PM 59.0 °F - 55.4 °F 88% 29.91 in 10.0 mi SW 8.1 mph - N/A   Mostly Cloudy
12:35 PM 62.6 °F - 55.4 °F 77% 29.90 in 10.0 mi SW 8.1 mph 16.1 mph N/A   Scattered Clouds
12:55 PM 62.6 °F - 55.4 °F 77% 29.89 in 10.0 mi SW 12.7 mph 20.7 mph N/A   Scattered Clouds
1:15 PM 62.6 °F - 55.4 °F 77% 29.87 in 10.0 mi SSW 8.1 mph 17.3 mph N/A   Mostly Cloudy
1:35 PM 62.6 °F - 55.4 °F 77% 29.86 in 10.0 mi SW 10.4 mph 20.7 mph N/A   Mostly Cloudy
1:55 PM 64.4 °F - 55.4 °F 73% 29.83 in 10.0 mi SW 12.7 mph 19.6 mph N/A   Scattered Clouds
2:15 PM 64.4 °F - 53.6 °F 68% 29.81 in 10.0 mi SW 13.8 mph 25.3 mph N/A   Scattered Clouds
2:35 PM 66.2 °F - 51.8 °F 60% 29.80 in 10.0 mi SW 16.1 mph 24.2 mph N/A   Scattered Clouds
2:55 PM 68.0 °F - 50.0 °F 52% 29.78 in 10.0 mi SSW 12.7 mph 24.2 mph N/A   Clear
3:15 PM 68.0 °F - 48.2 °F 49% 29.77 in 10.0 mi SW 15.0 mph 21.9 mph N/A   Clear
3:35 PM 68.0 °F - 48.2 °F 49% 29.76 in 10.0 mi WSW 13.8 mph 17.3 mph N/A   Clear
3:55 PM 68.0 °F - 48.2 °F 49% 29.75 in 10.0 mi SSW 8.1 mph 16.1 mph N/A   Clear
4:15 PM 68.0 °F - 48.2 °F 49% 29.74 in 10.0 mi SW 4.6 mph - N/A   Clear
4:35 PM 68.0 °F - 46.4 °F 46% 29.72 in 10.0 mi WSW 13.8 mph 18.4 mph N/A   Clear
4:55 PM 68.0 °F - 46.4 °F 46% 29.72 in 10.0 mi SW 9.2 mph - N/A   Clear
5:15 PM 66.2 °F - 46.4 °F 49% 29.71 in 10.0 mi SW 3.5 mph - N/A   Clear
5:35 PM 66.2 °F - 48.2 °F 52% 29.71 in 10.0 mi SW 5.8 mph - N/A   Clear
5:55 PM 64.4 °F - 50.0 °F 59% 29.71 in 10.0 mi Calm Calm - N/A   Clear
6:15 PM 62.6 °F - 50.0 °F 63% 29.70 in 10.0 mi Calm Calm - N/A   Clear
6:35 PM 59.0 °F - 53.6 °F 82% 29.70 in 10.0 mi Calm Calm - N/A   Clear
6:55 PM 55.4 °F - 53.6 °F 94% 29.71 in 10.0 mi Calm Calm - N/A   Clear
7:15 PM 55.4 °F - 53.6 °F 94% 29.71 in 10.0 mi Calm Calm - N/A   Clear
7:35 PM 55.4 °F - 53.6 °F 94% 29.72 in 10.0 mi Calm Calm - N/A   Scattered Clouds
7:55 PM 53.6 °F - 53.6 °F 100% 29.70 in 10.0 mi Calm Calm - N/A   Scattered Clouds
8:15 PM 53.6 °F - 53.6 °F 100% 29.68 in 10.0 mi Calm Calm - N/A   Partly Cloudy
8:35 PM 51.8 °F - 51.8 °F 100% 29.68 in 10.0 mi Calm Calm - N/A   Clear
8:55 PM 50.0 °F - 50.0 °F 100% 29.66 in 10.0 mi Calm Calm - N/A   Clear
9:15 PM 50.0 °F - 50.0 °F 100% 29.65 in 10.0 mi Calm Calm - N/A   Scattered Clouds
9:35 PM 50.0 °F - 50.0 °F 100% 29.65 in 10.0 mi SSE 3.5 mph - N/A   Partly Cloudy
9:55 PM 53.6 °F - 53.6 °F 100% 29.65 in 10.0 mi Calm Calm - N/A   Clear
10:15 PM 55.4 °F - 51.8 °F 88% 29.64 in 10.0 mi South 4.6 mph - N/A   Partly Cloudy
10:35 PM 57.2 °F - 50.0 °F 77% 29.65 in 10.0 mi SSW 4.6 mph - N/A   Partly Cloudy
11:15 PM 57.2 °F - 50.0 °F 77% 29.64 in 10.0 mi Calm Calm - N/A   Scattered Clouds
11:35 PM 57.2 °F - 51.8 °F 82% 29.64 in 10.0 mi Calm Calm - N/A   Clear
11:55 PM 57.2 °F - 51.8 °F 82% 29.64 in 10.0 mi South 6.9 mph - N/A   Clear